CZ-6A DEB, 61796

Orbit data source: Space-Track

CZ-6A DEB, 61796 is space debris in LEO originally from a launch on Tue, 06 Aug 2024 UTC launched from the Taiyaun Space Center, China (TSC). Debris objects in space refer to the collection of defunct objects orbiting the Earth. Examples of debris include non-operational satellites, rocket bodies, and fragments generated from explosions, collisions, or faulty payload assembly.

Loading next visibility...
Identifier
61796, 2024-140ABL
Orbit
LEO
Country
Flag of CNCN / PRC
Related business
Manufacturer
SAST
Mission
Spacecraft
Bus & Motor
Unknown
Mass
Unknown
Launch date (UTC)
2024-08-06 (2 years ago)
Launch vehicle
Unknown
Launch site
Taiyaun Space Center, China (TSC)
Object type
Payload
Rocket body
Debris
Shape & HBR
Unknown shape, 0.1 m
Radar Cross Section
Medium (>0.1 m² and <1 m²)

Expand to show TLE details & history
Last TLE update: 18 hours ago

TLE from 18 hours ago
0 CZ-6A DEB
1 61796U 24140ABL 26171.20470865  .00000859  00000-0  43451-3 0  9991
2 61796  88.7993 259.2756 0074764 204.8469 154.9111 14.13809002 93318
Epoch: 2026-06-20T04:54Z
TLE epoch observation values (Epoch: 2026-06-20T04:54:46.827Z)
Latitude
-0.00005°
Longitude
-82.8422°
Altitude
898.409 km
Speed
7.378 km/s
True Right ascension
17h 17m 06s
True Declination
0° 00' 00"
Sunlit
Object was in full shadow at epoch
Visualization orbit readout
Latitude
Unknown
Longitude
Unknown
Altitude
Unknown
Speed
Unknown
Apparent Right ascension
Unknown
Apparent Declination
Unknown
Sunlit
N/A
Visualization observer readout
Local Sidereal Time
10:19:04
Azimuth
Unknown
Elevation
Unknown
Doppler factor
Unknown
Orbital elements
Apogee altitude
897.318 km
Perigee altitude
789.337 km
Semi-major axis
7,221.465 km
Eccentricity
0.00748
Inclination
88.7993°
RAAN
259.2756°
Arg. of periapsis
204.8469°
True anomaly
155.27132°
Mean anomaly
154.9111°
Eccentric anomaly
155.09152°
Mean motion
3.53676 °/min
Orbital period
101.79 mins
BSTAR
0.00043451
Loading maneuver chart data...
Computing Atmospheric mass density...
Loading historical data...
Loading historical data...
Loading historical data...
Loading historical data...
Loading historical data...
Loading historical data...
Loading historical data...

Documentation

Showing up to 5 results
|